TimeMST,TemperatureF,Dew PointF,Humidity,Sea Level PressureIn,VisibilityMPH,Wind Direction,Wind SpeedMPH,Gust SpeedMPH,PrecipitationIn,Events,Conditions,WindDirDegrees,DateUTC
12:10 AM,32.0,-9999,N/A,30.10,10.0,SW,10.4,17.3,N/A,,Mostly Cloudy,230,2012-11-19 07:10:00
12:30 AM,32.0,-9999,N/A,30.11,10.0,SW,10.4,-,N/A,,Scattered Clouds,220,2012-11-19 07:30:00
12:50 AM,32.0,-9999,N/A,30.11,10.0,SW,13.8,18.4,N/A,,Mostly Cloudy,220,2012-11-19 07:50:00
1:10 AM,32.0,-9999,N/A,30.10,10.0,SSW,12.7,-,N/A,,Mostly Cloudy,210,2012-11-19 08:10:00
1:30 AM,32.0,-9999,N/A,30.10,10.0,SW,9.2,-,N/A,,Overcast,220,2012-11-19 08:30:00
1:50 AM,32.0,-9999,N/A,30.10,10.0,SSW,13.8,-,N/A,,Overcast,210,2012-11-19 08:50:00
2:10 AM,32.0,-9999,N/A,30.11,5.0,SW,9.2,-,N/A,,Haze,220,2012-11-19 09:10:00
2:30 AM,32.0,-9999,N/A,30.12,3.0,SW,8.1,-,N/A,,Overcast,220,2012-11-19 09:30:00
2:50 AM,32.0,-9999,N/A,30.12,9.0,SSW,11.5,-,N/A,,Overcast,210,2012-11-19 09:50:00
3:10 AM,32.0,-9999,N/A,30.12,3.0,SSW,5.8,-,N/A,,Mostly Cloudy,210,2012-11-19 10:10:00
3:30 AM,32.0,-9999,N/A,30.11,2.0,South,8.1,-,N/A,Snow,Light Snow,190,2012-11-19 10:30:00
3:50 AM,32.0,-9999,N/A,30.11,4.0,SW,4.6,-,N/A,Snow,Light Snow,220,2012-11-19 10:50:00
4:10 AM,32.0,-9999,N/A,30.12,4.0,South,9.2,-,N/A,Snow,Light Snow,180,2012-11-19 11:10:00
4:30 AM,32.0,-9999,N/A,30.12,3.0,SSW,13.8,18.4,N/A,,Mostly Cloudy,210,2012-11-19 11:30:00
4:50 AM,32.0,-9999,N/A,30.11,7.0,SSW,15.0,24.2,N/A,,Overcast,210,2012-11-19 11:50:00
5:10 AM,32.0,-9999,N/A,30.13,2.0,SW,11.5,19.6,N/A,,Overcast,220,2012-11-19 12:10:00
5:30 AM,32.0,-9999,N/A,30.13,5.0,SW,12.7,20.7,N/A,,Haze,230,2012-11-19 12:30:00
5:50 AM,32.0,-9999,N/A,30.13,3.0,SW,13.8,17.3,N/A,Snow,Light Snow,220,2012-11-19 12:50:00
6:30 AM,32.0,-9999,N/A,30.13,2.0,SSW,10.4,-,N/A,Snow,Light Snow,210,2012-11-19 13:30:00
6:50 AM,32.0,-9999,N/A,30.13,3.0,SW,10.4,17.3,N/A,Snow,Light Snow,220,2012-11-19 13:50:00
7:10 AM,32.0,-9999,N/A,30.14,2.5,SW,11.5,-,N/A,Snow,Light Snow,220,2012-11-19 14:10:00
7:30 AM,32.0,-9999,N/A,30.14,1.8,SSW,11.5,-,N/A,Snow,Light Snow,210,2012-11-19 14:30:00
7:50 AM,32.0,-9999,N/A,30.15,2.0,SW,12.7,19.6,N/A,,Overcast,230,2012-11-19 14:50:00
8:10 AM,32.0,-9999,N/A,30.15,2.5,SW,10.4,16.1,N/A,Snow,Light Snow,220,2012-11-19 15:10:00
8:30 AM,32.0,-9999,N/A,30.17,4.0,SW,9.2,-,N/A,,Haze,220,2012-11-19 15:30:00
8:50 AM,32.0,-9999,N/A,30.17,8.0,SW,13.8,18.4,N/A,,Overcast,220,2012-11-19 15:50:00
9:10 AM,33.8,-9999,N/A,30.17,4.0,SW,9.2,-,N/A,,Overcast,220,2012-11-19 16:10:00
9:30 AM,33.8,-9999,N/A,30.18,7.0,SSW,8.1,17.3,N/A,,Mostly Cloudy,210,2012-11-19 16:30:00
9:50 AM,33.8,-9999,N/A,30.19,10.0,SSW,9.2,18.4,N/A,,Overcast,200,2012-11-19 16:50:00
10:10 AM,33.8,-9999,N/A,30.21,10.0,South,5.8,-,N/A,,Overcast,190,2012-11-19 17:10:00
10:30 AM,33.8,-9999,N/A,30.21,3.0,SSW,8.1,17.3,N/A,,Mostly Cloudy,210,2012-11-19 17:30:00
10:50 AM,33.8,-9999,N/A,30.22,3.0,South,6.9,17.3,N/A,,Mostly Cloudy,190,2012-11-19 17:50:00
11:10 AM,33.8,-9999,N/A,30.21,4.0,SSW,6.9,-,N/A,Snow,Light Snow,200,2012-11-19 18:10:00
11:30 AM,33.8,-9999,N/A,30.21,5.0,SW,11.5,-,N/A,Snow,Light Snow,220,2012-11-19 18:30:00
11:50 AM,33.8,-9999,N/A,30.20,2.0,SW,11.5,18.4,N/A,Rain,Light Rain,220,2012-11-19 18:50:00
12:10 PM,35.6,-9999,N/A,30.19,9.0,SW,10.4,17.3,N/A,,Mostly Cloudy,220,2012-11-19 19:10:00
12:30 PM,35.6,-9999,N/A,30.19,7.0,SSW,8.1,-,N/A,,Mostly Cloudy,210,2012-11-19 19:30:00
12:50 PM,33.8,-9999,N/A,30.19,8.0,SW,9.2,-,N/A,,Mostly Cloudy,230,2012-11-19 19:50:00
1:10 PM,35.6,-9999,N/A,30.18,10.0,SW,12.7,18.4,N/A,,Overcast,220,2012-11-19 20:10:00
1:30 PM,35.6,-9999,N/A,30.19,10.0,SW,8.1,16.1,N/A,,Mostly Cloudy,220,2012-11-19 20:30:00
1:50 PM,35.6,-9999,N/A,30.19,10.0,SSW,8.1,-,N/A,,Overcast,200,2012-11-19 20:50:00
2:10 PM,35.6,-9999,N/A,30.18,10.0,SSW,8.1,-,N/A,,Overcast,200,2012-11-19 21:10:00
2:30 PM,35.6,-9999,N/A,30.18,10.0,SSW,6.9,-,N/A,,Overcast,210,2012-11-19 21:30:00
2:50 PM,35.6,-9999,N/A,30.17,10.0,SSW,8.1,17.3,N/A,,Overcast,200,2012-11-19 21:50:00
3:10 PM,35.6,-9999,N/A,30.17,10.0,SSW,5.8,-,N/A,,Overcast,210,2012-11-19 22:10:00
3:30 PM,35.6,-9999,N/A,30.18,10.0,Calm,Calm,-,N/A,,Overcast,0,2012-11-19 22:30:00
3:50 PM,35.6,-9999,N/A,30.18,10.0,South,4.6,-,N/A,Rain,Light Rain,190,2012-11-19 22:50:00
4:10 PM,35.6,-9999,N/A,30.18,10.0,South,6.9,-,N/A,,Overcast,190,2012-11-19 23:10:00
4:30 PM,35.6,-9999,N/A,30.18,10.0,SW,12.7,17.3,N/A,,Overcast,220,2012-11-19 23:30:00
4:50 PM,35.6,-9999,N/A,30.18,10.0,SSW,12.7,-,N/A,,Overcast,200,2012-11-19 23:50:00
5:10 PM,35.6,-9999,N/A,30.17,10.0,SSW,15.0,21.9,N/A,,Mostly Cloudy,210,2012-11-20 00:10:00
5:30 PM,35.6,-9999,N/A,30.18,10.0,SSW,11.5,19.6,N/A,,Overcast,210,2012-11-20 00:30:00
5:50 PM,35.6,-9999,N/A,30.18,10.0,SW,13.8,19.6,N/A,,Overcast,220,2012-11-20 00:50:00
6:10 PM,35.6,-9999,N/A,30.18,10.0,SW,11.5,20.7,N/A,,Overcast,220,2012-11-20 01:10:00
6:30 PM,35.6,-9999,N/A,30.18,10.0,SSW,9.2,-,N/A,,Overcast,210,2012-11-20 01:30:00
6:50 PM,37.4,-9999,N/A,30.18,4.0,SSW,6.9,-,N/A,,Haze,200,2012-11-20 01:50:00
7:10 PM,37.4,-9999,N/A,30.19,10.0,SW,6.9,-,N/A,,Mostly Cloudy,230,2012-11-20 02:10:00
7:30 PM,35.6,-9999,N/A,30.18,10.0,SW,9.2,-,N/A,,Overcast,220,2012-11-20 02:30:00
8:10 PM,35.6,-9999,N/A,30.18,5.0,SW,8.1,-,N/A,Rain,Light Rain,230,2012-11-20 03:10:00
8:30 PM,35.6,-9999,N/A,30.18,10.0,SSW,5.8,-,N/A,,Overcast,210,2012-11-20 03:30:00
8:50 PM,35.6,-9999,N/A,30.17,10.0,South,5.8,-,N/A,,Overcast,190,2012-11-20 03:50:00
9:10 PM,37.4,-9999,N/A,30.17,10.0,SW,9.2,-,N/A,,Overcast,220,2012-11-20 04:10:00
9:30 PM,37.4,-9999,N/A,30.17,10.0,SSW,11.5,23.0,N/A,,Overcast,210,2012-11-20 04:30:00
9:50 PM,37.4,-9999,N/A,30.17,7.0,SW,8.1,17.3,N/A,,Overcast,220,2012-11-20 04:50:00
10:10 PM,37.4,-9999,N/A,30.18,10.0,West,6.9,-,N/A,,Mostly Cloudy,260,2012-11-20 05:10:00
10:30 PM,37.4,-9999,N/A,30.17,10.0,SW,10.4,-,N/A,,Mostly Cloudy,220,2012-11-20 05:30:00
10:50 PM,37.4,-9999,N/A,30.16,10.0,SW,15.0,23.0,N/A,,Overcast,220,2012-11-20 05:50:00
11:10 PM,37.4,-9999,N/A,30.17,10.0,SW,9.2,24.2,N/A,,Overcast,220,2012-11-20 06:10:00
11:30 PM,37.4,-9999,N/A,30.16,10.0,SSW,15.0,21.9,N/A,,Overcast,210,2012-11-20 06:30:00
11:50 PM,37.4,-9999,N/A,30.18,10.0,SW,11.5,21.9,N/A,,Overcast,220,2012-11-20 06:50:00